Погода в Леуши

Погода в Леуши : погода сейчас, прогноз погоды и архив. Всё, что Вы хотите узнать о погоде в Леуши!

Хотите узнать прогноз погоды в Леуши? Тогда Вам сюда: Погода в Леуши

Поиск расширенной информации на нашем сайте:

Другие новости

Новости СМИ2

Главная страница сайта

Новости сайта

03.07.2017

Напоминаем, что на нашем специализированном сайте Метеоцентр.Азия вы можете получить высокодетализированные автоматические прогнозы погоды по пунктам России, СНГ и мира в авиационном формате (включающие направление и скорость ветра, видимость, явления погоды, количество и форму облачности, нижнюю и верхнюю границу облачности).

Рекомендуем: Сервисный центр ремонт компьютеров оболенск заменит материнскую плату.

Погода в Леуши - сегодня

Время (UTC), дата Ветер
(°,м/с) 
Видим.   Явления Облачность Т
(°С)
Тd
(°С)
f(%) Тe
(°С)
Pmin
(гПа)
dP
(гПа)
Po
(мм)
O2
(г/м3)
Тmin Tmax R s Состояние
почвы
03 21.09.17 010 (С) 20000 м    10/10 300 м 
[Frnb]
+5.6 +4.2 91 +5  1020  1.9  758  299  +5.6    0.6     
06 21.09.17 360 (С) 20000 м    10/10 600 м 
[Sc]
+6.3 +5.1 92 +4  1021.7  1.8  760  298  +5.5         
09 21.09.17 350 (С) 20000 м    10/10 600 м 
[Sc]
+9.3 +4.9 74 +9  1022.8  1.2  761  296           
12 21.09.17 350 (С) 20000 м    10/8 600 м средняя 
[Sc|Ac cast]
+10 +3.7 65 +10  1023.9  1.1  761  295           
15 21.09.17 330 (СЗ) 20000 м    10/10 600 м 
[Sc]
+7.6 +3.9 77 +6  1025.1  1.1  762  298    +10.2  0.0     
18 21.09.17 330 (СЗ) 20000 м    10/10 600 м 
[Sc]
+6.6 +3.3 79 +5  1025.4  0.3  763  300           
21 21.09.17 320 (СЗ) 20000 м    10/10 600 м 
[Sc]
+5.5 +3.3 86 +3  1025.7  0.3  763  301           
00 22.09.17 330 (СЗ) 20000 м    10/10 600 м 
[Sc]
+5 +3 87 +3  1026.3  0.6  763  302           
03 22.09.17 350 (С) 20000 м    10/5 600 м верхняя 
[Sc|Ci]
+4.5 +0.9 77 +2  1028.2  1.8  765  303  +4.3         
06 22.09.17 020 (С) 5{11}  20000 м  {ливн. осадки}  10/10 600 м 
[Sc]
+4 -2.2 64 +2  1029.9  1.7  766  304  +3.3         
09 22.09.17 320 (СЗ) 7-11{11}  20000 м    8/8 600 м кучево-дожд. 
[Cb cap]
+4.7 +0.6 75 +2  1030.5  0.7  766  303           
12 22.09.17 330 (СЗ) 6{11}  20000 м    10/10 600 м 
[Sc]
+3 -2.9 65 1031.8  1.2  767  306           
15 22.09.17 340 (С) 3{11}  20000 м    10/10 600 м 
[Sc]
+2.6 -2.8 68 +1  1032.4  0.6  768  307    +5.4  0.0     
18 22.09.17 340 (С) 20000 м    10/10 600 м 
[Sc]
+2.9 -1.4 73 +1  1032.1  -0.3  767  306           
21 22.09.17 340 (С) 20000 м    10/10 600 м 
[Sc]
+2.3 -1.3 77 +1  1032.7  0.6  768  307           
00 23.09.17 340 (С) 20000 м    10/10 600 м 
[Sc]
+1.8 -0.5 85 1033.1  0.4  768  308           
03 23.09.17 020 (С) 20000 м    10/0 средняя 
[Ac As]
+1.4 -1.7 80 -1  1033.9  0.8  769  308  +1.3         
06 23.09.17 310 (СЗ) 20000 м    10/10 600 м 
[Sc]
+2.5 -3.4 65 +2  1034.1  0.2  769  307  +1.1         
09 23.09.17 300 (СЗ) 20000 м    10/10 600 м 
[Sc]
+4.1 -3.5 58 +4  1033.6  -0.5  769  306           
12 23.09.17 280 (З) 20000 м    10/10 600 м 
[Sc]
+4.6 -2.9 58 +5  1033.1  -0.4  768  305           
15 23.09.17 220 (ЮЗ) 20000 м    10/10 600 м 
[Sc]
+3.1 -0.2 79 +4  1033.3  0.1  768  306    +4.7       
18 23.09.17 тихо ()   20000 м    10/10 600 м 
[Sc]
+2.6 +0.4 85 +3  1033.8  0.5  769  307           
21 23.09.17 260 (З) 20000 м    10/10 600 м 
[Sc]
+2.7 -0.1 82 +3  1034.3  0.5  769  307           
00 24.09.17 150 (ЮВ) 20000 м    10/10 600 м 
[Sc]
+2.1 +0.4 88 +3  1035.4  1.1  770  308           
03 24.09.17 140 (ЮВ) 20000 м    10/4 600 м средняя, верхняя 
[Sc|Ac trans|Ci fib]
+2.3 -1.5 76 +3  1036.8  1.3  771  308  +1.4         
Время (UTC), дата Ветер
(°,м/с) 
Видим.   Явления Облачность Т
(°С)
Тd
(°С)
f(%) Тe
(°С)
Pmin
(гПа)
dP
(гПа)
Po
(мм)
O2
(г/м3)
Тmin Tmax R s Состояние
почвы

Для получения пояснительной информации подведите курсор к названию столбца.

ПОГОДА в Леуши - архив

Всё, что Вы хотите узнать о погоде в Леуши - удобно и подробно!

Выберите нужную дату (начиная с 1 января 2015* года) и нажмите кнопку "Найти".
Будут отображены архивные сводки погоды по пункту Леуши, начиная с указанной даты.


Отображать данные в формате CSV (для использования в таблицах Excel)


Внимание! Наш архив погоды предназначен исключительно для личного некоммерческого использования в познавательных целях. Если Вам необходимы официальные справки о состоянии погоды (для производственных, юридических, коммерческих и т.п. целей), обращайтесь в органы Росгидромета.

*Примечание: данная дата относится к архиву по метеостанциям СССР (Россия, СНГ, Балтия).
Архив по метеостанциям Зарубежной Европы и Азии (кроме Китая) хранится 10 дней, по другим регионам земного шара (Китай, Африка, Америка, Австралия, Океания) - 1 день.

Леуши - район местоположения метеостанции


Название, широта, долгота, высота метеостанции:
Леуши 59.6°ш. 65.7°д. 72 м над ур. моря [Российская Федерация]

Дополнительная информация

В oтличие oт бoльшинства пoгoдных сайтoв мы публикуем пoдрoбную метеoинфoрмацию в детальнoм прoфессиoнальнoм фoрмате.

Характеристики температуры и влажнoсти вoздуха измеряются на высoте 2 м в тени вдали oт зданий и деревьев.
Скoрoсть ветра измеряется на высoте 10 м (на урoвне рoста челoвека скoрoсть ветра ниже в 1.5-2 раза). Если метеoстанция нахoдится в гoрoде или в лесу, тo скoрoсть ветра занижена на 2-4 м/с пo сравнению с oткрытым местoм. Скoрoсть ветра над акватoриями крупных рек и oзёр, а также на вершинах хoлмoв на 2-5 м/с выше, чем в oбычных услoвиях.
Атмoсфернoе давление в разных тoчках местнoсти мoжет значительнo oтличаться oт давления на метеoстанции, в зависимoсти oт услoвий рельефа (при пoдъёме на 10 м давление пoнижается примернo на 1 мм рт.ст.).